DLH1AN EDDS-EDDF

Flight info

Callsign DLH1AN
Flight time 0h 21m
Altitude 22000
Route ETASA2H ETASA T163 SPESA SPESA5B
Aircraft A321/M-SDE3FGHIRWY/LB1

Departure

Time 2026-04-16 06:58
Airport Stuttgart Airport (EDDS)

Arrival

Time 2026-04-16 07:19
Airport Frankfurt Main Airport (EDDF)
Time Latitude Longitude Altitude Speed Heading
2026-04-16 06:44 48.68893 9.19430 1315 ft 0 kts 344°
2026-04-16 06:51 48.68879 9.19436 1315 ft 4 kts 344°
2026-04-16 06:51 48.68854 9.19447 1314 ft 3 kts 344°
2026-04-16 06:51 48.68830 9.19451 1313 ft 4 kts 28°
2026-04-16 06:51 48.68815 9.19423 1313 ft 4 kts 72°
2026-04-16 06:52 48.68812 9.19412 1313 ft 0 kts 74°
2026-04-16 06:54 48.68813 9.19416 1313 ft 2 kts 74°
2026-04-16 06:55 48.68823 9.19467 1312 ft 8 kts 74°
2026-04-16 06:55 48.68844 9.19579 1310 ft 13 kts 74°
2026-04-16 06:55 48.68872 9.19732 1307 ft 17 kts 74°
2026-04-16 06:55 48.68879 9.19870 1302 ft 14 kts 129°
2026-04-16 06:56 48.68771 9.19941 1294 ft 20 kts 157°
2026-04-16 06:56 48.68655 9.19997 1287 ft 19 kts 165°
2026-04-16 06:56 48.68586 9.20041 1284 ft 8 kts 127°
2026-04-16 06:56 48.68598 9.20137 1282 ft 12 kts 72°
2026-04-16 06:57 48.68632 9.20305 1279 ft 33 kts 73°
2026-04-16 06:57 48.68773 9.21059 1270 ft 113 kts 74°
2026-04-16 06:57 48.69052 9.22528 1252 ft 173 kts 74°
2026-04-16 06:57 48.69374 9.24315 1848 ft 178 kts 76°
2026-04-16 06:58 48.69690 9.26188 2496 ft 189 kts 75°
2026-04-16 06:58 48.70049 9.28212 2855 ft 209 kts 74°
2026-04-16 06:58 48.70465 9.30409 3163 ft 233 kts 72°
2026-04-16 06:58 48.70982 9.32906 3474 ft 261 kts 71°
2026-04-16 06:59 48.71531 9.35572 4195 ft 267 kts 71°
2026-04-16 06:59 48.72152 9.38252 5011 ft 272 kts 67°
2026-04-16 06:59 48.73018 9.40798 5848 ft 273 kts 49°
2026-04-16 06:59 48.74525 9.42492 6655 ft 271 kts 20°
2026-04-16 07:00 48.76334 9.43315 7412 ft 274 kts
2026-04-16 07:00 48.78224 9.43261 8159 ft 275 kts 347°
2026-04-16 07:00 48.80043 9.42344 8933 ft 276 kts 334°
2026-04-16 07:01 48.83501 9.39678 10450 ft 284 kts 333°
2026-04-16 07:01 48.85424 9.38591 10658 ft 308 kts 347°
2026-04-16 07:01 48.87612 9.37960 10791 ft 332 kts 348°
2026-04-16 07:01 48.89951 9.37318 11006 ft 350 kts 348°
2026-04-16 07:02 48.92375 9.36675 11547 ft 356 kts 348°
2026-04-16 07:02 48.94829 9.36029 12175 ft 360 kts 348°
2026-04-16 07:02 48.97307 9.35371 12828 ft 363 kts 348°
2026-04-16 07:02 48.99807 9.34700 13466 ft 367 kts 348°
2026-04-16 07:03 49.02333 9.34019 14097 ft 370 kts 347°
2026-04-16 07:03 49.04879 9.33325 14660 ft 373 kts 347°
2026-04-16 07:03 49.07443 9.32621 15237 ft 376 kts 347°
2026-04-16 07:03 49.10027 9.31908 15815 ft 379 kts 347°
2026-04-16 07:04 49.12625 9.31189 16387 ft 381 kts 347°
2026-04-16 07:04 49.15248 9.30464 16973 ft 384 kts 347°
2026-04-16 07:04 49.17853 9.29749 17535 ft 386 kts 347°
2026-04-16 07:04 49.20506 9.29021 18078 ft 388 kts 347°
2026-04-16 07:05 49.23174 9.28290 18607 ft 391 kts 347°
2026-04-16 07:05 49.25862 9.27551 19080 ft 393 kts 347°
2026-04-16 07:05 49.28560 9.26806 19520 ft 395 kts 347°
2026-04-16 07:05 49.31281 9.26051 19975 ft 398 kts 347°
2026-04-16 07:06 49.34017 9.25290 20429 ft 400 kts 347°
2026-04-16 07:06 49.36764 9.24528 20881 ft 403 kts 347°
2026-04-16 07:06 49.39530 9.23760 21328 ft 405 kts 346°
2026-04-16 07:06 49.42317 9.22988 21769 ft 408 kts 346°
2026-04-16 07:07 49.45121 9.22210 22143 ft 411 kts 346°
2026-04-16 07:07 49.47936 9.21425 22235 ft 411 kts 346°
2026-04-16 07:07 49.50751 9.20643 22238 ft 411 kts 346°
2026-04-16 07:07 49.53560 9.19864 22238 ft 411 kts 346°
2026-04-16 07:08 49.56373 9.19081 22237 ft 411 kts 346°
2026-04-16 07:08 49.59202 9.18290 22236 ft 418 kts 346°
2026-04-16 07:08 49.62075 9.17479 22240 ft 431 kts 346°
2026-04-16 07:08 49.65066 9.16631 22235 ft 443 kts 346°
2026-04-16 07:09 49.68135 9.15760 22234 ft 454 kts 346°
2026-04-16 07:09 49.71271 9.14875 22228 ft 462 kts 346°
2026-04-16 07:09 49.74439 9.13987 22229 ft 463 kts 346°
2026-04-16 07:09 49.77612 9.13097 22227 ft 464 kts 346°
2026-04-16 07:10 49.80775 9.12210 22132 ft 454 kts 347°
2026-04-16 07:10 49.83803 9.11372 20751 ft 434 kts 347°
2026-04-16 07:10 49.86740 9.10555 19107 ft 424 kts 347°
2026-04-16 07:10 49.89604 9.09750 17369 ft 414 kts 347°
2026-04-16 07:11 49.92409 9.08954 15637 ft 405 kts 347°
2026-04-16 07:11 49.95159 9.08168 14018 ft 398 kts 347°
2026-04-16 07:11 49.97857 9.07394 12335 ft 389 kts 347°
2026-04-16 07:11 50.00485 9.06640 10861 ft 378 kts 348°
2026-04-16 07:12 50.02982 9.05927 9743 ft 356 kts 348°
2026-04-16 07:12 50.05385 9.05239 8111 ft 352 kts 348°
2026-04-16 07:12 50.07776 9.04373 6544 ft 345 kts 337°
2026-04-16 07:12 50.09748 9.02434 5674 ft 321 kts 314°
2026-04-16 07:13 50.11016 8.99879 5592 ft 280 kts 298°
2026-04-16 07:13 50.11717 8.97220 5389 ft 263 kts 284°
2026-04-16 07:13 50.11965 8.94431 5121 ft 258 kts 270°
2026-04-16 07:13 50.11765 8.91681 4809 ft 256 kts 256°
2026-04-16 07:14 50.11192 8.89064 4469 ft 254 kts 250°
2026-04-16 07:14 50.10588 8.86493 4125 ft 249 kts 251°
2026-04-16 07:14 50.10004 8.84004 3800 ft 239 kts 251°
2026-04-16 07:14 50.09455 8.81674 3507 ft 219 kts 251°
2026-04-16 07:15 50.08948 8.79523 3221 ft 205 kts 251°
2026-04-16 07:15 50.08479 8.77536 2951 ft 187 kts 251°
2026-04-16 07:15 50.08057 8.75753 2719 ft 164 kts 251°
2026-04-16 07:15 50.07743 8.74157 2472 ft 146 kts 261°
2026-04-16 07:16 50.07615 8.72634 2228 ft 138 kts 263°
2026-04-16 07:16 50.07455 8.71181 2072 ft 135 kts 255°
2026-04-16 07:16 50.07163 8.69793 1888 ft 135 kts 252°
2026-04-16 07:16 50.06849 8.68413 1699 ft 135 kts 249°
2026-04-16 07:17 50.06503 8.67070 1493 ft 135 kts 247°
2026-04-16 07:17 50.06153 8.65710 1314 ft 136 kts 249°
2026-04-16 07:17 50.05835 8.64322 1126 ft 136 kts 251°
2026-04-16 07:17 50.05515 8.62935 992 ft 137 kts 250°
2026-04-16 07:18 50.05199 8.61544 826 ft 136 kts 248°
2026-04-16 07:18 50.04860 8.60173 650 ft 135 kts 248°
2026-04-16 07:18 50.04539 8.58799 448 ft 135 kts 248°
2026-04-16 07:18 50.04228 8.57469 366 ft 120 kts 248°
2026-04-16 07:19 50.03980 8.56472 359 ft 74 kts 250°
2026-04-16 07:19 50.03872 8.55976 357 ft 33 kts 276°
2026-04-16 07:19 50.03906 8.55689 356 ft 18 kts 291°
2026-04-16 07:19 50.03990 8.55708 352 ft 16 kts 64°
2026-04-16 07:20 50.04031 8.55875 357 ft 17 kts 71°
2026-04-16 07:20 50.04106 8.55963 360 ft 15 kts 343°
2026-04-16 07:20 50.04208 8.55918 353 ft 15 kts
2026-04-16 07:20 50.04266 8.56043 360 ft 15 kts 56°
2026-04-16 07:21 50.04361 8.56043 363 ft 15 kts 339°
2026-04-16 07:21 50.04445 8.56087 360 ft 15 kts 64°
2026-04-16 07:21 50.04481 8.56238 358 ft 11 kts 70°
2026-04-16 07:21 50.04475 8.56309 358 ft 7 kts 156°
2026-04-16 07:22 50.04435 8.56328 358 ft 3 kts 167°
2026-04-16 07:22 50.04431 8.56329 357 ft 0 kts 167°